Weather History for KLEX - October, 2013

Change the Weather History Date:

Tuesday, October 8, 2013

  Actual Average Record
Temperature  
Mean Temperature 56 °F 60 °F  
Max Temperature 68 °F 70 °F 91 °F (2007)
Min Temperature 44 °F 49 °F 29 °F (2000)
Degree Days  
Heating Degree Days 9 7  
Month to date heating degree days 20 46  
Since 1 July heating degree days 40 100  
Cooling Degree Days 0 1  
Month to date cooling degree days 41 12  
Year to date cooling degree days 1242 1175  
Growing Degree Days 6 (Base 50)    
Moisture  
Dew Point 44 °F    
Average Humidity 69    
Maximum Humidity 92    
Minimum Humidity 45    
Precipitation  
Precipitation 0.00 in 0.09 in 1.66 in (1959)
Month to date precipitation 3.99 0.78  
Year to date precipitation 49.26 35.36  
Snow  
Snow 0.00 in 0.00 in 0.00 in ()
Month to date snowfall 0.0 0.0  
Since 1 July snowfall 0.0 0.0  
Since 1 September snowfall 0.0 0.0  
Snow Depth 0.00 in    
Sea Level Pressure  
Sea Level Pressure 30.20 in    
Wind  
Wind Speed 10 mph (NE)    
Max Wind Speed 19 mph    
Max Gust Speed 28 mph    
Visibility 10 miles    
Events      
T = Trace of Precipitation, MM = Missing Value Source: NWS Daily Summary

Daily Weather History Graph

Daily Weather History Graph

Search for Another Location

Airport or City:

Trip Planner

Search our weather history database for the weather conditions in past years. The results will help you decide how hot, cold, wet, or windy it might be!

Date:

Astronomy

Oct. 08, 2013 Rise Set
Actual Time 7:40 AM EDT 7:10 PM EDT
Civil Twilight 7:14 AM EDT 7:36 PM EDT
Nautical Twilight 6:43 AM EDT 8:07 PM EDT
Astronomical Twilight 6:13 AM EDT 8:37 PM EDT
Moon 11:30 AM EDT (10/8) 9:49 PM EDT (10/8)
Length of Visible Light 12h 22m
Length of Day
11h 29m
Waxing Crescent, 16% of the Moon is Illuminated
Oct 8
Waxing Crescent
Oct 11
First Quarter
Oct 18
Full
Oct 26
Last Quarter
Nov 3
New

Hourly Weather History & Observations

Time (EDT) Temp. Windchill Dew Point Humidity Pressure Visibility Wind Dir Wind Speed Gust Speed Precip Events Conditions
12:54 AM 46.0 °F 42.5 °F 43.0 °F 89% 30.16 in 10.0 mi North 6.9 mph - N/A   Clear
1:54 AM 48.0 °F - 43.0 °F 83% 30.16 in 10.0 mi NE 4.6 mph - N/A   Clear
2:54 AM 46.0 °F 44.8 °F 42.1 °F 86% 30.17 in 10.0 mi NE 3.5 mph - N/A   Clear
3:54 AM 46.9 °F - 43.0 °F 86% 30.17 in 10.0 mi NE 4.6 mph - N/A   Clear
4:54 AM 46.0 °F 43.9 °F 42.1 °F 86% 30.18 in 10.0 mi NE 4.6 mph - N/A   Clear
5:54 AM 45.0 °F 41.2 °F 42.1 °F 90% 30.19 in 10.0 mi NE 6.9 mph - N/A   Clear
6:54 AM 46.0 °F 43.1 °F 42.1 °F 86% 30.20 in 10.0 mi ENE 5.8 mph - N/A   Clear
7:54 AM 45.0 °F 43.5 °F 42.1 °F 90% 30.22 in 10.0 mi ENE 3.5 mph - N/A   Clear
8:54 AM 50.0 °F - 46.0 °F 86% 30.24 in 10.0 mi NE 6.9 mph - N/A   Clear
9:54 AM 55.9 °F - 46.9 °F 72% 30.25 in 10.0 mi ENE 10.4 mph - N/A   Clear
10:54 AM 57.9 °F - 46.9 °F 67% 30.26 in 10.0 mi East 16.1 mph - N/A   Clear
11:54 AM 62.1 °F - 46.0 °F 56% 30.25 in 10.0 mi ENE 16.1 mph 20.7 mph N/A   Clear
12:54 PM 63.0 °F - 45.0 °F 52% 30.25 in 10.0 mi ENE 16.1 mph - N/A   Clear
1:54 PM 64.9 °F - 45.0 °F 48% 30.21 in 10.0 mi NE 16.1 mph 24.2 mph N/A   Clear
2:54 PM 66.9 °F - 45.0 °F 45% 30.19 in 10.0 mi NE 18.4 mph 25.3 mph N/A   Clear
3:54 PM 66.9 °F - 44.1 °F 44% 30.19 in 10.0 mi ENE 12.7 mph 24.2 mph N/A   Clear
4:54 PM 66.9 °F - 44.1 °F 44% 30.17 in 10.0 mi ENE 13.8 mph 21.9 mph N/A   Clear
5:54 PM 66.0 °F - 45.0 °F 47% 30.18 in 10.0 mi ENE 15.0 mph - N/A   Clear
6:54 PM 62.1 °F - 45.0 °F 53% 30.18 in 10.0 mi NE 10.4 mph - N/A   Clear
7:54 PM 57.0 °F - 46.0 °F 67% 30.19 in 10.0 mi NE 6.9 mph - N/A   Clear
8:54 PM 55.9 °F - 46.0 °F 69% 30.19 in 10.0 mi ENE 9.2 mph - N/A   Clear
9:54 PM 55.0 °F - 46.0 °F 72% 30.20 in 10.0 mi NE 10.4 mph - N/A   Clear
10:54 PM 55.9 °F - 45.0 °F 67% 30.20 in 10.0 mi ENE 9.2 mph - N/A   Clear
11:54 PM 55.0 °F - 45.0 °F 69% 30.20 in 10.0 mi ENE 9.2 mph - N/A   Clear